This is the latest recevied weather packets stored in our database for station/object NK7I. If no packets are shown the sender has not sent any weather packets the latest 1 day(s).
| Time | Temp. | Humidity | Pressure | Rain* | Wind** | Luminosity | Snow |
|---|---|---|---|---|---|---|---|
| 1778050583 | 10.56° C | 54% | 1012.4 hPa | 0 mm | 0 m/s | 0 W/m² | - |
| 1778050283 | 10.56° C | 56% | 1012.4 hPa | 0 mm | 0 m/s | 0 W/m² | - |
| 1778049983 | 10.56° C | 59% | 1012.3 hPa | 0 mm | 0 m/s | 0 W/m² | - |
| 1778049683 | 10.56° C | 59% | 1012.3 hPa | 0 mm | 0 m/s | 0 W/m² | - |
| 1778049383 | 10.56° C | 57% | 1012.3 hPa | 0 mm | 0 m/s | 0 W/m² | - |
| 1778049083 | 10.56° C | 60% | 1012.3 hPa | 0 mm | 0 m/s | 0 W/m² | - |
| 1778048783 | 10.56° C | 58% | 1012.2 hPa | 0 mm | 0 m/s | 0 W/m² | - |
| 1778048483 | 10.56° C | 59% | 1012.2 hPa | 0 mm | 0 m/s | 0 W/m² | - |
| 1778048183 | 10.56° C | 59% | 1012.2 hPa | 0 mm | 0 m/s | 0 W/m² | - |
| 1778047883 | 10.56° C | 57% | 1012.1 hPa | 0 mm | 0 m/s | 0 W/m² | - |
| 1778047583 | 10.56° C | 58% | 1012 hPa | 0 mm | 0 m/s | 0 W/m² | - |
| 1778047283 | 11.11° C | 60% | 1011.9 hPa | 0 mm | 0 m/s | 0 W/m² | - |
| 1778046983 | 11.11° C | 61% | 1011.8 hPa | 0 mm | 0 m/s | 0 W/m² | - |
| 1778046683 | 11.11° C | 58% | 1011.9 hPa | 0 mm | 0 m/s | 0 W/m² | - |
| 1778046383 | 11.11° C | 60% | 1011.7 hPa | 0 mm | 0 m/s | 0 W/m² | - |
| 1778046083 | 11.67° C | 60% | 1011.7 hPa | 0 mm | 0 m/s | 0 W/m² | - |
| 1778045783 | 11.67° C | 57% | 1011.7 hPa | 0 mm | 0 m/s | 0 W/m² | - |
| 1778045483 | 11.67° C | 57% | 1011.7 hPa | 0 mm | 0 m/s | 0 W/m² | - |
| 1778045183 | 12.22° C | 57% | 1011.6 hPa | 0 mm | 0 m/s | 0 W/m² | - |
| 1778044884 | 12.22° C | 54% | 1011.4 hPa | 0 mm | 0 m/s | 0 W/m² | - |
| 1778044582 | 12.78° C | 56% | 1011.3 hPa | 0 mm | 0 m/s | 0 W/m² | - |
| 1778044283 | 12.78° C | 56% | 1011.3 hPa | 0 mm | 0 m/s | 0 W/m² | - |
| 1778043983 | 12.78° C | 53% | 1011.3 hPa | 0 mm | 0 m/s | 0 W/m² | - |
| 1778043683 | 12.78° C | 49% | 1011.2 hPa | 0 mm | 0 m/s | 0 W/m² | - |
| 1778043383 | 12.78° C | 49% | 1011.2 hPa | 0 mm | 0 m/s | 0 W/m² | - |
* Rain latest hour (hover to see other rain measurements)
** Current wind speed in m/s (hover to see current wind gust speed)